Mount Vernon, IL

8:16 PM CDT on October 16, 2017 (GMT -0500)
Mount Vernon

Weather History for KMVN - July, 2012

Change the Weather History Date:

Thursday, July 26, 2012

  Actual Average Record
Temperature  
Mean Temperature 84 °F -  
Max Temperature 98 °F 85 °F 100 °F (1999)
Min Temperature 71 °F 65 °F 57 °F (1996)
Cooling Degree Days 20    
Growing Degree Days 34 (Base 50)    
Moisture  
Dew Point 69 °F    
Average Humidity 65    
Maximum Humidity 94    
Minimum Humidity 35    
Precipitation  
Precipitation 0.24 in - - ()
Sea Level Pressure  
Sea Level Pressure 29.80 in    
Wind  
Wind Speed 11 mph (SW)    
Max Wind Speed 18 mph    
Max Gust Speed 24 mph    
Visibility 10 miles    
Events Thunderstorm    
Averages and records for this station are not official NWS values.
T = Trace of Precipitation, MM = Missing Value Source: NWS Daily Summary

Daily Weather History Graph

Daily Weather History Graph

Search for Another Location

Airport or City:

Trip Planner

Search our weather history database for the weather conditions in past years. The results will help you decide how hot, cold, wet, or windy it might be!

Date:

Astronomy

Jul. 26, 2012 Rise Set
Actual Time 5:53 AM CDT 8:10 PM CDT
Civil Twilight 5:23 AM CDT 8:40 PM CDT
Nautical Twilight 4:46 AM CDT 9:16 PM CDT
Astronomical Twilight 4:06 AM CDT 9:56 PM CDT
Moon 1:58 PM CDT (7/26) No Moon Set
Length of Visible Light 15h 16m
Length of Day
14h 17m
First Quarter, 54% of the Moon is Illuminated
Jul 26
First Quarter
Aug 1
Full
Aug 9
Last Quarter
Aug 17
New
Aug 24
First Quarter

Hourly Weather History & Observations

Time (CDT) Temp. Heat Index Dew Point Humidity Pressure Visibility Wind Dir Wind Speed Gust Speed Precip Events Conditions
12:15 AM 87.8 °F 93.8 °F 71.6 °F 58% 29.77 in 10.0 mi SSW 18.4 mph 23.0 mph N/A   Clear
12:35 AM 87.8 °F 92.6 °F 69.8 °F 55% 29.78 in 10.0 mi SSW 16.1 mph 24.2 mph N/A   Clear
12:55 AM 86.0 °F 91.8 °F 71.6 °F 62% 29.78 in 10.0 mi SSW 13.8 mph - N/A   Clear
1:15 AM 86.0 °F 91.8 °F 71.6 °F 62% 29.79 in 10.0 mi SW 13.8 mph - N/A   Clear
1:55 AM 84.2 °F 89.6 °F 71.6 °F 66% 29.78 in 10.0 mi SW 13.8 mph 17.3 mph N/A   Clear
2:15 AM 84.2 °F 89.6 °F 71.6 °F 66% 29.77 in 10.0 mi SSW 17.3 mph - N/A   Clear
2:35 AM 84.2 °F 89.6 °F 71.6 °F 66% 29.77 in 10.0 mi SSW 12.7 mph - N/A   Clear
2:55 AM 84.2 °F 89.6 °F 71.6 °F 66% 29.77 in 10.0 mi SSW 13.8 mph - N/A   Clear
3:15 AM 84.2 °F 89.6 °F 71.6 °F 66% 29.76 in 10.0 mi SSW 12.7 mph - N/A   Clear
3:35 AM 82.4 °F 87.2 °F 71.6 °F 70% 29.76 in 10.0 mi SSW 13.8 mph - N/A   Clear
3:55 AM 82.4 °F 87.2 °F 71.6 °F 70% 29.75 in 10.0 mi SSW 12.7 mph - N/A   Clear
4:15 AM 82.4 °F 87.2 °F 71.6 °F 70% 29.75 in 10.0 mi SSW 12.7 mph - N/A   Clear
4:35 AM 82.4 °F 87.2 °F 71.6 °F 70% 29.76 in 10.0 mi SSW 12.7 mph - N/A   Partly Cloudy
4:55 AM 82.4 °F 87.2 °F 71.6 °F 70% 29.77 in 10.0 mi SW 12.7 mph - N/A   Mostly Cloudy
5:15 AM 82.4 °F 87.2 °F 71.6 °F 70% 29.77 in 10.0 mi SSW 12.7 mph - N/A   Scattered Clouds
5:35 AM 82.4 °F 87.2 °F 71.6 °F 70% 29.77 in 10.0 mi SW 11.5 mph - N/A   Scattered Clouds
5:55 AM 82.4 °F 87.2 °F 71.6 °F 70% 29.78 in 10.0 mi SW 15.0 mph 18.4 mph N/A   Scattered Clouds
6:15 AM 82.4 °F 87.2 °F 71.6 °F 70% 29.78 in 10.0 mi SSW 10.4 mph - N/A   Scattered Clouds
6:35 AM 82.4 °F 87.2 °F 71.6 °F 70% 29.78 in 10.0 mi WSW 10.4 mph 16.1 mph N/A   Scattered Clouds
6:55 AM 84.2 °F 89.6 °F 71.6 °F 66% 29.78 in 10.0 mi SW 13.8 mph - N/A   Clear
7:15 AM 84.2 °F 89.6 °F 71.6 °F 66% 29.79 in 10.0 mi WSW 11.5 mph - N/A   Clear
7:35 AM 84.2 °F 88.4 °F 69.8 °F 62% 29.80 in 10.0 mi WSW 11.5 mph 16.1 mph N/A   Clear
7:55 AM - - - N/A% 29.80 in 10.0 mi SW 9.2 mph - N/A   Clear
8:35 AM - - - N/A% 29.81 in 10.0 mi West 4.6 mph 17.3 mph N/A   Partly Cloudy
8:55 AM - - - N/A% 29.81 in 10.0 mi West 5.8 mph - N/A   Partly Cloudy
9:15 AM - - - N/A% 29.82 in 10.0 mi WNW 3.5 mph - N/A   Clear
9:35 AM - - - N/A% 29.81 in 10.0 mi WNW 3.5 mph - N/A   Partly Cloudy
9:55 AM - - - N/A% 29.82 in 10.0 mi NW 3.5 mph - N/A   Partly Cloudy
10:15 AM - - - N/A% 29.83 in 10.0 mi WNW 4.6 mph - N/A   Scattered Clouds
10:35 AM - - - N/A% 29.82 in 10.0 mi North 4.6 mph - N/A   Scattered Clouds
10:55 AM 87.8 °F 90.4 °F 66.2 °F 49% 29.83 in 10.0 mi NNE 6.9 mph - N/A   Partly Cloudy
11:15 AM 89.6 °F 92.2 °F 66.2 °F 46% 29.83 in 10.0 mi NE 4.6 mph - N/A   Partly Cloudy
11:35 AM 89.6 °F 92.2 °F 66.2 °F 46% 29.82 in 10.0 mi Calm Calm - N/A   Clear
11:55 AM 91.4 °F 94.0 °F 66.2 °F 43% 29.82 in 10.0 mi WNW 3.5 mph - N/A   Clear
12:15 PM 91.4 °F 94.0 °F 66.2 °F 43% 29.81 in 10.0 mi East 3.5 mph - N/A   Partly Cloudy
12:35 PM 93.2 °F 96.2 °F 66.2 °F 41% 29.81 in 10.0 mi NNW 4.6 mph - N/A   Partly Cloudy
12:55 PM 93.2 °F 96.2 °F 66.2 °F 41% 29.81 in 10.0 mi Calm Calm - N/A   Scattered Clouds
1:15 PM 93.2 °F 96.2 °F 66.2 °F 41% 29.81 in 10.0 mi Calm Calm - N/A   Partly Cloudy
1:35 PM 95.0 °F 98.5 °F 66.2 °F 39% 29.80 in 10.0 mi SW 10.4 mph - N/A   Clear
1:55 PM 95.0 °F 98.5 °F 66.2 °F 39% 29.79 in 10.0 mi WSW 6.9 mph - N/A   Clear
2:15 PM 96.8 °F 100.7 °F 66.2 °F 37% 29.79 in 10.0 mi SW 8.1 mph - N/A   Clear
2:35 PM 98.6 °F 102.8 °F 66.2 °F 35% 29.78 in 10.0 mi SSW 9.2 mph 21.9 mph N/A   Partly Cloudy
2:55 PM 96.8 °F 100.7 °F 66.2 °F 37% 29.78 in 10.0 mi SW 9.2 mph - N/A   Mostly Cloudy
3:15 PM 95.0 °F 98.5 °F 66.2 °F 39% 29.77 in 10.0 mi WSW 9.2 mph - N/A   Overcast
3:35 PM 93.2 °F 96.2 °F 66.2 °F 41% 29.77 in 10.0 mi NW 4.6 mph - N/A   Overcast
3:55 PM 93.2 °F 96.2 °F 66.2 °F 41% 29.75 in 10.0 mi WNW 3.5 mph - N/A   Overcast
4:15 PM 93.2 °F 96.2 °F 66.2 °F 41% 29.75 in 10.0 mi North 5.8 mph - N/A   Overcast
4:36 PM 93.2 °F 96.2 °F 66.2 °F 41% 29.75 in 10.0 mi Calm Calm - N/A   Mostly Cloudy
4:55 PM 93.2 °F 96.2 °F 66.2 °F 41% 29.75 in 10.0 mi North 5.8 mph - N/A   Scattered Clouds
5:15 PM 91.4 °F 94.0 °F 66.2 °F 43% 29.76 in 10.0 mi North 3.5 mph - N/A Thunderstorm Mostly Cloudy
5:35 PM 78.8 °F - 71.6 °F 78% 29.77 in 5.0 mi NNE 3.5 mph - 0.16 in Thunderstorm Thunderstorm
5:55 PM 78.8 °F - 73.4 °F 83% 29.79 in 10.0 mi South 8.1 mph - 0.16 in Thunderstorm Thunderstorm
6:15 PM 78.8 °F - 73.4 °F 83% 29.77 in 10.0 mi SSE 5.8 mph - N/A Thunderstorm Mostly Cloudy
6:35 PM 77.0 °F - 71.6 °F 83% 29.81 in 10.0 mi SSW 9.2 mph - N/A Thunderstorm Thunderstorm
6:55 PM 75.2 °F - 71.6 °F 89% 29.82 in 10.0 mi SSW 12.7 mph - 0.02 in   Mostly Cloudy
7:15 PM 75.2 °F - 69.8 °F 83% 29.82 in 10.0 mi SSW 9.2 mph - 0.02 in Thunderstorm Thunderstorm
7:35 PM 73.4 °F - 71.6 °F 94% 29.83 in 10.0 mi SSW 8.1 mph - 0.03 in Thunderstorm Overcast
7:55 PM 73.4 °F - 71.6 °F 94% 29.83 in 10.0 mi SW 6.9 mph - 0.05 in   Overcast
8:15 PM 73.4 °F - 69.8 °F 88% 29.84 in 10.0 mi SSW 10.4 mph - 0.01 in   Mostly Cloudy
8:35 PM 73.4 °F - 71.6 °F 94% 29.84 in 10.0 mi WSW 5.8 mph - 0.01 in   Scattered Clouds
8:55 PM 73.4 °F - 69.8 °F 88% 29.86 in 10.0 mi WSW 8.1 mph - 0.01 in   Scattered Clouds
9:15 PM 73.4 °F - 69.8 °F 88% 29.87 in 10.0 mi WSW 4.6 mph - N/A   Mostly Cloudy
9:35 PM 73.4 °F - 69.8 °F 88% 29.87 in 10.0 mi SW 5.8 mph - N/A   Partly Cloudy
9:55 PM 73.4 °F - 69.8 °F 88% 29.88 in 10.0 mi SW 9.2 mph - N/A   Clear
10:15 PM 73.4 °F - 68.0 °F 83% 29.87 in 10.0 mi SW 9.2 mph - N/A   Clear
10:35 PM 73.4 °F - 69.8 °F 88% 29.87 in 10.0 mi SW 9.2 mph - N/A   Clear
10:55 PM 71.6 °F - 69.8 °F 94% 29.87 in 10.0 mi SW 6.9 mph - N/A   Clear
11:15 PM 71.6 °F - 69.8 °F 94% 29.87 in 10.0 mi SW 6.9 mph - N/A   Clear
11:35 PM 73.4 °F - 69.8 °F 88% 29.89 in 10.0 mi SW 8.1 mph - N/A   Clear
11:55 PM 73.4 °F - 69.8 °F 88% 29.89 in 10.0 mi SW 8.1 mph - N/A   Mostly Cloudy